AIJAN Weather Reports


Display with metric or nautical units.
time (UTC)temp
F
wind
direction
speed
MPH
gust
MPH
rain 1hr
in
rain 24hr
in
rain mn
in
humidity
%
barometer
mb
20260906064131 48 351 15.0 26.0 0.00 0.00 0.00 68
20260906062500 47 352 14.0 23.0 0.00 0.00 0.00 72
20260906060456 47 339 9.0 19.0 0.00 0.00 0.00 78
20260906054459 47 339 9.0 16.0 0.00 0.00 0.00 80
20260906052500 47 325 9.0 19.0 0.00 0.00 0.00 81
20260906050501 46 317 9.0 13.0 0.00 0.00 0.00 83
20260906044457 46 317 9.0 15.0 0.00 0.00 0.00 84
20260906042130 46 317 9.0 14.0 0.00 0.00 0.00 85
20260906040500 45 311 8.0 11.0 0.00 0.00 0.00 92
20260906032459 45 312 8.0 13.0 0.00 0.00 0.00 92
20260906030501 45 316 9.0 14.0 0.00 0.00 0.00 93
20260906024500 45 319 7.0 15.0 0.00 0.00 0.00 96
20260906022501 46 310 8.0 11.0 0.00 0.00 0.00 94
20260906020500 46 311 8.0 12.0 0.00 0.00 0.00 93
20260906014501 46 324 7.0 13.0 0.00 0.00 0.00 92
20260906012458 47 322 8.0 15.0 0.00 0.00 0.00 92
20260906010501 47 317 10.0 15.0 0.00 0.00 0.00 92
20260906004501 47 325 5.0 11.0 0.00 0.00 0.00 91
20260906000130 47 329 5.0 8.0 0.00 0.00 0.00 92
20260905234459 46 339 6.0 11.0 0.00 0.00 0.00 91
20260905232458 47 346 7.0 15.0 0.00 0.00 0.00 89
20260905230459 48 341 9.0 15.0 0.00 0.00 0.00 89
20260905224458 48 341 9.0 16.0 0.00 0.00 0.00 88
20260905222459 47 343 9.0 16.0 0.00 0.00 0.00 91
20260905220500 48 348 9.0 16.0 0.00 0.00 0.00 89
20260905214459 48 345 9.0 15.0 0.00 0.00 0.00 89
20260905212458 48 345 9.0 19.0 0.00 0.00 0.00 90
20260905210456 48 341 9.0 17.0 0.00 0.00 0.00 91
20260905204458 48 343 8.0 15.0 0.00 0.00 0.00 91
20260905200129 48 342 7.0 13.0 0.00 0.00 0.00 92
20260905194129 47 328 6.0 13.0 0.00 0.00 0.00 95
20260905192129 47 338 6.0 12.0 0.00 0.00 0.00 94
20260905190129 48 343 9.0 16.0 0.00 0.00 0.00 92
20260905184459 48 342 8.0 15.0 0.00 0.00 0.00 92
20260905180127 48 345 9.0 15.0 0.00 0.00 0.00 92
20260905174127 49 2 9.0 17.0 0.00 0.00 0.00 94
20260905172456 50 346 9.0 15.0 0.00 0.00 0.00 85
20260905170457 51 352 9.0 13.0 0.00 0.00 0.00 85
20260905164129 51 349 11.0 22.0 0.00 0.00 0.00 85
20260905162453 51 357 8.0 15.0 0.00 0.00 0.00 87
20260905160456 51 8 10.0 18.0 0.00 0.00 0.00 88
20260905154129 53 351 9.0 16.0 0.00 0.00 0.00 78
20260905152457 53 343 11.0 17.0 0.00 0.00 0.00 80
20260905150457 54 344 12.0 17.0 0.00 0.00 0.00 80
20260905144457 54 351 10.0 21.0 0.00 0.00 0.00 77
20260905142457 55 346 10.0 20.0 0.00 0.00 0.00 80
20260905140457 55 359 9.0 14.0 0.00 0.00 0.00 80
20260905134456 54 350 10.0 19.0 0.00 0.00 0.00 87
20260905132128 56 356 11.0 18.0 0.00 0.00 0.00 81
20260905130501 55 5 11.0 19.0 0.00 0.00 0.00 81
20260905124456 55 339 9.0 16.0 0.00 0.00 0.00 85
20260905122128 57 335 8.0 17.0 0.00 0.00 0.00 81
20260905120456 55 8 7.0 11.0 0.00 0.00 0.00 87
20260905110456 56 322 7.0 12.0 0.00 0.00 0.00 81
20260905104458 55 334 6.0 13.0 0.00 0.00 0.00 85
20260905102457 55 317 10.0 15.0 0.00 0.00 0.00 89
20260905100457 54 309 6.0 9.0 0.00 0.00 0.00 90
20260905094456 53 319 5.0 8.0 0.00 0.00 0.00 94
20260905092456 53 315 6.0 9.0 0.00 0.00 0.00 92
20260905090457 53 313 8.0 12.0 0.00 0.00 0.00 96
20260905084457 52 309 8.0 11.0 0.00 0.00 0.00 99
20260905082458 51 312 6.0 10.0 0.00 0.00 0.00 100
20260905074454 50 300 6.0 9.0 0.00 0.00 0.00 100
20260905072454 50 294 8.0 10.0 0.00 0.00 0.00 100